EW6122 Weather Reports


time (UTC)temp
C
wind
direction
speed
KPH
gust
KPH
rain 1hr
cm
rain 24hr
cm
rain mn
cm
humidity
%
barometer
mb
20260504150104 17 236 16.1 38.6 0.00 0.00 0.00 33 1009.3
20260504081531 3 229 3.2 9.7 0.00 0.00 0.00 82 1009.9
20260504081506 3 229 3.2 8.0 0.00 0.00 0.00 82 1009.8
20260504044549 2 248 0.0 0.0 0.00 0.00 0.00 82 1010.0
20260504044540 2 0 0.0 0.0 0.00 0.00 0.00 82 1010.1
20260504043056 2 248 0.0 1.6 0.00 0.00 0.00 81 1010.1
20260504043032 2 0 0.0 1.6 0.00 0.00 0.00 80 1010.2
20260504041545 2 248 0.0 0.0 0.00 0.00 0.00 80 1010.0
20260504041531 2 0 0.0 0.0 0.00 0.00 0.00 79 1010.0
20260504040042 2 248 0.0 0.0 0.00 0.00 0.00 78 1009.9
20260504040030 2 0 0.0 0.0 0.00 0.00 0.00 78 1009.9
20260504034551 3 0 0.0 0.0 0.00 0.00 0.00 78 1009.9
20260504034540 3 248 0.0 0.0 0.00 0.00 0.00 78 1009.9
20260504033039 3 248 0.0 0.0 0.00 0.00 0.00 78 1009.7
20260504033029 3 0 0.0 1.6 0.00 0.00 0.00 77 1009.7
20260504031538 3 248 0.0 1.6 0.00 0.00 0.00 77 1009.6
20260504031532 3 0 0.0 1.6 0.00 0.00 0.00 77 1009.7
20260504030042 3 0 0.0 0.0 0.00 0.00 0.00 73 1009.7
20260504030036 3 248 0.0 0.0 0.00 0.00 0.00 74 1009.6
20260504024535 4 248 0.0 1.6 0.00 0.00 0.00 74 1009.6
20260504024530 4 0 0.0 1.6 0.00 0.00 0.00 74 1009.7
20260504023035 4 248 0.0 1.6 0.00 0.00 0.00 72 1009.6
20260504023033 4 0 0.0 1.6 0.00 0.00 0.00 72 1009.7
20260504021534 4 0 0.0 1.6 0.00 0.00 0.00 70 1009.7
20260504021532 4 248 0.0 1.6 0.00 0.00 0.00 71 1009.6
20260504020044 5 248 0.0 3.2 0.00 0.00 0.00 70 1009.5
20260504020031 5 0 1.6 3.2 0.00 0.00 0.00 69 1009.7
20260504014541 5 0 0.0 0.0 0.00 0.00 0.00 65 1009.5
20260504014538 5 248 0.0 0.0 0.00 0.00 0.00 66 1009.3
20260504013037 6 248 0.0 0.0 0.00 0.00 0.00 62 1009.3
20260504013033 6 0 0.0 0.0 0.00 0.00 0.00 62 1009.4
20260504011532 7 0 0.0 1.6 0.00 0.00 0.00 56 1009.2
20260504010046 7 248 0.0 0.0 0.00 0.00 0.00 57 1008.8
20260504010030 7 0 0.0 0.0 0.00 0.00 0.00 57 1009.1
20260504004615 7 248 0.0 0.0 0.00 0.00 0.00 54 1008.5
20260504004533 7 0 0.0 0.0 0.00 0.00 0.00 53 1008.7
20260504003050 7 248 0.0 0.0 0.00 0.00 0.00 52 1008.2
20260504003036 7 0 0.0 0.0 0.00 0.00 0.00 51 1008.5
20260504001615 8 248 0.0 0.0 0.00 0.00 0.00 48 1008.1
20260504001532 8 0 0.0 0.0 0.00 0.00 0.00 47 1008.3
20260504000041 9 248 0.0 0.0 0.00 0.00 0.00 45 1007.9
20260504000033 9 0 0.0 0.0 0.00 0.00 0.00 45 1008.1
20260503234540 10 0 0.0 0.0 0.00 0.00 0.00 41 1007.9
20260503234536 10 248 0.0 0.0 0.00 0.00 0.00 41 1007.7
20260503233040 11 293 0.0 0.0 0.00 0.00 0.00 37 1007.6
20260503233033 11 0 0.0 0.0 0.00 0.00 0.00 37 1007.8
20260503231536 12 294 0.0 0.0 0.00 0.00 0.00 35 1007.5
20260503231534 12 0 0.0 0.0 0.00 0.00 0.00 35 1007.6
20260503230106 12 264 0.0 0.0 0.00 0.00 0.00 34 1007.4
20260503230038 12 0 0.0 0.0 0.00 0.00 0.00 33 1007.6
20260503224546 12 253 0.0 0.0 0.00 0.00 0.00 34 1007.4
20260503224531 12 0 0.0 0.0 0.00 0.00 0.00 34 1007.6
20260503223045 12 317 0.0 0.0 0.00 0.00 0.00 35 1007.4
20260503223034 12 0 0.0 0.0 0.00 0.00 0.00 34 1007.6
20260503221544 12 265 0.0 0.0 0.00 0.00 0.00 34 1007.3
20260503221539 12 0 0.0 0.0 0.00 0.00 0.00 33 1007.4
20260503220045 12 267 0.0 0.0 0.00 0.00 0.00 34 1007.3
20260503220030 12 0 0.0 0.0 0.00 0.00 0.00 33 1007.5
20260503214538 12 246 0.0 0.0 0.00 0.00 0.00 34 1007.5
20260503214533 12 0 0.0 0.0 0.00 0.00 0.00 34 1007.7
20260503213041 12 0 0.0 0.0 0.00 0.00 0.00 36 1007.6
20260503213037 12 263 0.0 0.0 0.00 0.00 0.00 37 1007.5
20260503211536 12 257 0.0 0.0 0.00 0.00 0.00 35 1007.4
20260503211531 12 0 0.0 0.0 0.00 0.00 0.00 35 1007.6
20260503210031 12 242 0.0 0.0 0.00 0.00 0.00 38 1007.4
20260503204544 12 0 0.0 0.0 0.00 0.00 0.00 36 1007.3
20260503204530 12 247 0.0 0.0 0.00 0.00 0.00 37 1007.2
20260503203044 11 348 0.0 0.0 0.00 0.00 0.00 36 1007.4
20260503203032 11 0 0.0 0.0 0.00 0.00 0.00 36 1007.5
20260503201532 11 244 0.0 0.0 0.00 0.00 0.00 37 1007.4
20260503201530 11 0 0.0 0.0 0.00 0.00 0.00 37 1007.5
20260503200044 12 283 0.0 0.0 0.00 0.00 0.00 37 1007.3
20260503200034 12 0 0.0 0.0 0.00 0.00 0.00 36 1007.4
20260503194544 11 277 0.0 0.0 0.00 0.00 0.00 37 1007.3
20260503194529 11 0 0.0 0.0 0.00 0.00 0.00 36 1007.5
20260503193042 12 0 0.0 0.0 0.00 0.00 0.00 37 1007.6
20260503191546 11 211 0.0 0.0 0.00 0.00 0.00 39 1007.4
20260503191530 11 0 0.0 0.0 0.00 0.00 0.00 38 1007.5
20260503190041 11 319 0.0 0.0 0.00 0.00 0.00 35 1007.3
20260503190034 12 0 0.0 0.0 0.00 0.00 0.00 35 1007.5
20260503184537 11 0 0.0 0.0 0.00 0.00 0.00 37 1007.3
20260503184534 11 298 0.0 0.0 0.00 0.00 0.00 37 1007.2
20260503183035 11 0 0.0 0.0 0.00 0.00 0.00 37 1007.4
20260503181536 11 346 0.0 0.0 0.00 0.00 0.00 37 1007.3
20260503181529 11 0 0.0 0.0 0.00 0.00 0.00 36 1007.4
20260503180052 12 229 0.0 0.0 0.00 0.00 0.00 37 1007.1
20260503180040 11 0 0.0 0.0 0.00 0.00 0.00 36 1007.3
20260503174546 11 333 0.0 0.0 0.00 0.08 0.00 40 1007.1
20260503174533 11 0 0.0 0.0 0.00 0.08 0.00 39 1007.4
20260503173056 11 0 0.0 0.0 0.00 0.08 0.00 38 1007.6
20260503173042 11 295 0.0 0.0 0.00 0.08 0.00 38 1007.3
20260503171542 10 289 0.0 0.0 0.00 0.08 0.00 42 1007.5
20260503171531 10 0 0.0 0.0 0.00 0.08 0.00 41 1007.7